Year,Month,Day,Hour,Minute,Value (Times are PST for temperature in C)
2011,08,06,00,00,19.30
2011,08,06,00,01,19.30
2011,08,06,00,02,19.30
2011,08,06,00,03,19.30
2011,08,06,00,04,19.30
2011,08,06,00,05,19.30
2011,08,06,00,06,19.30
2011,08,06,00,07,19.30
2011,08,06,00,08,19.30
2011,08,06,00,09,19.30
2011,08,06,00,10,19.30
2011,08,06,00,11,19.30
2011,08,06,00,12,19.30
2011,08,06,00,13,19.30
2011,08,06,00,14,19.30
2011,08,06,00,15,19.30
2011,08,06,00,16,19.30
2011,08,06,00,17,19.30
2011,08,06,00,18,19.30
2011,08,06,00,19,19.30
2011,08,06,00,20,19.30
2011,08,06,00,21,19.30
2011,08,06,00,22,19.30
2011,08,06,00,23,19.30
2011,08,06,00,24,19.30
2011,08,06,00,25,19.30
2011,08,06,00,26,19.30
2011,08,06,00,27,19.30
2011,08,06,00,28,19.30
2011,08,06,00,29,19.30
2011,08,06,00,30,19.30
2011,08,06,00,31,19.30
2011,08,06,00,32,19.30
2011,08,06,00,33,19.30
2011,08,06,00,34,19.30
2011,08,06,00,35,19.20
2011,08,06,00,36,19.20
2011,08,06,00,37,19.20
2011,08,06,00,38,19.20
2011,08,06,00,39,19.20
2011,08,06,00,40,19.20
2011,08,06,00,41,19.20
2011,08,06,00,42,19.20
2011,08,06,00,43,19.10
2011,08,06,00,44,19.10
2011,08,06,00,45,19.10
2011,08,06,00,46,19.10
2011,08,06,00,47,19.10
2011,08,06,00,48,19.10
2011,08,06,00,49,19.00
2011,08,06,00,50,19.00
2011,08,06,00,51,19.00
2011,08,06,00,52,18.90
2011,08,06,00,53,18.90
2011,08,06,00,54,18.90
2011,08,06,00,55,18.90
2011,08,06,00,56,18.90
2011,08,06,00,57,18.90
2011,08,06,00,58,18.80
2011,08,06,00,59,18.80
2011,08,06,01,00,18.80
2011,08,06,01,01,18.80
2011,08,06,01,02,18.80
2011,08,06,01,03,18.80
2011,08,06,01,04,18.80
2011,08,06,01,05,18.70
2011,08,06,01,06,18.70
2011,08,06,01,07,18.70
2011,08,06,01,08,18.70
2011,08,06,01,09,18.70
2011,08,06,01,10,18.70
2011,08,06,01,11,18.70
2011,08,06,01,12,18.70
2011,08,06,01,13,18.70
2011,08,06,01,14,18.70
2011,08,06,01,15,18.70
2011,08,06,01,16,18.60
2011,08,06,01,17,18.60
2011,08,06,01,18,18.60
2011,08,06,01,19,18.60
2011,08,06,01,20,18.60
2011,08,06,01,21,18.60
2011,08,06,01,22,18.60
2011,08,06,01,23,18.50
2011,08,06,01,24,18.50
2011,08,06,01,25,18.50
2011,08,06,01,26,18.50
2011,08,06,01,27,18.50
2011,08,06,01,28,18.50
2011,08,06,01,29,18.40
2011,08,06,01,30,18.40
2011,08,06,01,31,18.40
2011,08,06,01,32,18.40
2011,08,06,01,33,18.40
2011,08,06,01,34,18.40
2011,08,06,01,35,18.40
2011,08,06,01,36,18.40
2011,08,06,01,37,18.40
2011,08,06,01,38,18.40
2011,08,06,01,39,18.40
2011,08,06,01,40,18.40
2011,08,06,01,41,18.30
2011,08,06,01,42,18.30
2011,08,06,01,43,18.30
2011,08,06,01,44,18.30
2011,08,06,01,45,18.30
2011,08,06,01,46,18.30
2011,08,06,01,47,18.30
2011,08,06,01,48,18.30
2011,08,06,01,49,18.30
2011,08,06,01,50,18.30
2011,08,06,01,51,18.30
2011,08,06,01,52,18.30
2011,08,06,01,53,18.30
2011,08,06,01,54,18.30
2011,08,06,01,55,18.30
2011,08,06,01,56,18.30
2011,08,06,01,57,18.30
2011,08,06,01,58,18.30
2011,08,06,01,59,18.30
2011,08,06,02,00,18.30
2011,08,06,02,01,18.30
2011,08,06,02,02,18.20
2011,08,06,02,03,18.20
2011,08,06,02,04,18.20
2011,08,06,02,05,18.20
2011,08,06,02,06,18.20
2011,08,06,02,07,18.20
2011,08,06,02,08,18.20
2011,08,06,02,09,18.20
2011,08,06,02,10,18.20
2011,08,06,02,11,18.20
2011,08,06,02,12,18.10
2011,08,06,02,13,18.10
2011,08,06,02,14,18.10
2011,08,06,02,15,18.10
2011,08,06,02,16,18.10
2011,08,06,02,17,18.10
2011,08,06,02,18,18.10
2011,08,06,02,19,18.00
2011,08,06,02,20,18.00
2011,08,06,02,21,18.00
2011,08,06,02,22,18.00
2011,08,06,02,23,18.00
2011,08,06,02,24,17.90
2011,08,06,02,25,17.90
2011,08,06,02,26,17.90
2011,08,06,02,27,17.90
2011,08,06,02,28,17.90
2011,08,06,02,29,17.90
2011,08,06,02,30,17.90
2011,08,06,02,31,17.80
2011,08,06,02,32,17.80
2011,08,06,02,33,17.80
2011,08,06,02,34,17.80
2011,08,06,02,35,17.80
2011,08,06,02,36,17.80
2011,08,06,02,37,17.80
2011,08,06,02,38,17.80
2011,08,06,02,39,17.70
2011,08,06,02,40,17.70
2011,08,06,02,41,17.70
2011,08,06,02,42,17.70
2011,08,06,02,43,17.70
2011,08,06,02,44,17.70
2011,08,06,02,45,17.70
2011,08,06,02,46,17.70
2011,08,06,02,47,17.70
2011,08,06,02,48,17.70
2011,08,06,02,49,17.70
2011,08,06,02,50,17.70
2011,08,06,02,51,17.70
2011,08,06,02,52,17.70
2011,08,06,02,53,17.70
2011,08,06,02,54,17.70
2011,08,06,02,55,17.60
2011,08,06,02,56,17.60
2011,08,06,02,57,17.60
2011,08,06,02,58,17.60
2011,08,06,02,59,17.60
2011,08,06,03,00,17.60
2011,08,06,03,01,17.60
2011,08,06,03,02,17.60
2011,08,06,03,03,17.60
2011,08,06,03,04,17.60
2011,08,06,03,05,17.50
2011,08,06,03,06,17.50
2011,08,06,03,07,17.50
2011,08,06,03,08,17.50
2011,08,06,03,09,17.50
2011,08,06,03,10,17.50
2011,08,06,03,11,17.40
2011,08,06,03,12,17.40
2011,08,06,03,13,17.40
2011,08,06,03,14,17.40
2011,08,06,03,15,17.40
2011,08,06,03,16,17.40
2011,08,06,03,17,17.40
2011,08,06,03,18,17.40
2011,08,06,03,19,17.30
2011,08,06,03,20,17.30
2011,08,06,03,21,17.30
2011,08,06,03,22,17.30
2011,08,06,03,23,17.30
2011,08,06,03,24,17.30
2011,08,06,03,25,17.30
2011,08,06,03,26,17.30
2011,08,06,03,27,17.30
2011,08,06,03,28,17.30
2011,08,06,03,29,17.30
2011,08,06,03,30,17.30
2011,08,06,03,31,17.30
2011,08,06,03,32,17.20
2011,08,06,03,33,17.20
2011,08,06,03,34,17.30
2011,08,06,03,35,17.20
2011,08,06,03,36,17.20
2011,08,06,03,37,17.20
2011,08,06,03,38,17.20
2011,08,06,03,39,17.20
2011,08,06,03,40,17.20
2011,08,06,03,41,17.20
2011,08,06,03,42,17.20
2011,08,06,03,43,17.20
2011,08,06,03,44,17.20
2011,08,06,03,45,17.20
2011,08,06,03,46,17.10
2011,08,06,03,47,17.10
2011,08,06,03,48,17.10
2011,08,06,03,49,17.10
2011,08,06,03,50,17.10
2011,08,06,03,51,17.10
2011,08,06,03,52,17.10
2011,08,06,03,53,17.10
2011,08,06,03,54,17.10
2011,08,06,03,55,17.10
2011,08,06,03,56,17.00
2011,08,06,03,57,17.00
2011,08,06,03,58,17.00
2011,08,06,03,59,17.00
2011,08,06,04,00,17.00
2011,08,06,04,01,16.90
2011,08,06,04,02,16.90
2011,08,06,04,03,16.90
2011,08,06,04,04,16.90
2011,08,06,04,05,16.90
2011,08,06,04,06,16.90
2011,08,06,04,07,16.90
2011,08,06,04,08,16.90
2011,08,06,04,09,16.90
2011,08,06,04,10,16.90
2011,08,06,04,11,16.90
2011,08,06,04,12,16.90
2011,08,06,04,13,16.90
2011,08,06,04,14,16.80
2011,08,06,04,15,16.80
2011,08,06,04,16,16.80
2011,08,06,04,17,16.80
2011,08,06,04,18,16.80
2011,08,06,04,19,16.80
2011,08,06,04,20,16.80
2011,08,06,04,21,16.80
2011,08,06,04,22,16.80
2011,08,06,04,23,16.80
2011,08,06,04,24,16.80
2011,08,06,04,25,16.80
2011,08,06,04,26,16.80
2011,08,06,04,27,16.80
2011,08,06,04,28,16.70
2011,08,06,04,29,16.70
2011,08,06,04,30,16.70
2011,08,06,04,31,16.70
2011,08,06,04,32,16.70
2011,08,06,04,33,16.70
2011,08,06,04,34,16.70
2011,08,06,04,35,16.70
2011,08,06,04,36,16.70
2011,08,06,04,37,16.70
2011,08,06,04,38,16.70
2011,08,06,04,39,16.70
2011,08,06,04,40,16.70
2011,08,06,04,41,16.70
2011,08,06,04,42,16.70
2011,08,06,04,43,16.70
2011,08,06,04,44,16.70
2011,08,06,04,45,16.70
2011,08,06,04,46,16.70
2011,08,06,04,47,16.70
2011,08,06,04,48,16.70
2011,08,06,04,49,16.70
2011,08,06,04,50,16.70
2011,08,06,04,51,16.70
2011,08,06,04,52,16.70
2011,08,06,04,53,16.70
2011,08,06,04,54,16.70
2011,08,06,04,55,16.70
2011,08,06,04,56,16.70
2011,08,06,04,57,16.70
2011,08,06,04,58,16.70
2011,08,06,04,59,16.70
2011,08,06,05,00,16.70
2011,08,06,05,01,16.70
2011,08,06,05,02,16.70
2011,08,06,05,03,16.70
2011,08,06,05,04,16.60
2011,08,06,05,05,16.60
2011,08,06,05,06,16.60
2011,08,06,05,07,16.60
2011,08,06,05,08,16.60
2011,08,06,05,09,16.60
2011,08,06,05,10,16.60
2011,08,06,05,11,16.60
2011,08,06,05,12,16.60
2011,08,06,05,13,16.60
2011,08,06,05,14,16.60
2011,08,06,05,15,16.60
2011,08,06,05,16,16.60
2011,08,06,05,17,16.60
2011,08,06,05,18,16.60
2011,08,06,05,19,16.60
2011,08,06,05,20,16.50
2011,08,06,05,21,16.50
2011,08,06,05,22,16.50
2011,08,06,05,23,16.50
2011,08,06,05,24,16.40
2011,08,06,05,25,16.40
2011,08,06,05,26,16.40
2011,08,06,05,27,16.40
2011,08,06,05,28,16.40
2011,08,06,05,29,16.40
2011,08,06,05,30,16.40
2011,08,06,05,31,16.30
2011,08,06,05,32,16.30
2011,08,06,05,33,16.30
2011,08,06,05,34,16.30
2011,08,06,05,35,16.30
2011,08,06,05,36,16.30
2011,08,06,05,37,16.30
2011,08,06,05,38,16.30
2011,08,06,05,39,16.30
2011,08,06,05,40,16.20
2011,08,06,05,41,16.20
2011,08,06,05,42,16.20
2011,08,06,05,43,16.20
2011,08,06,05,44,16.20
2011,08,06,05,45,16.20
2011,08,06,05,46,16.20
2011,08,06,05,47,16.20
2011,08,06,05,48,16.20
2011,08,06,05,49,16.20
2011,08,06,05,50,16.20
2011,08,06,05,51,16.10
2011,08,06,05,52,16.10
2011,08,06,05,53,16.10
2011,08,06,05,54,16.10
2011,08,06,05,55,16.10
2011,08,06,05,56,16.10
2011,08,06,05,57,16.10
2011,08,06,05,58,16.10
2011,08,06,05,59,16.10
2011,08,06,06,00,16.00
2011,08,06,06,01,16.00
2011,08,06,06,02,16.00
2011,08,06,06,03,16.00
2011,08,06,06,04,16.00
2011,08,06,06,05,16.00
2011,08,06,06,06,16.00
2011,08,06,06,07,16.00
2011,08,06,06,08,16.00
2011,08,06,06,09,16.00
2011,08,06,06,10,16.00
2011,08,06,06,11,15.90
2011,08,06,06,12,15.90
2011,08,06,06,13,15.90
2011,08,06,06,14,15.90
2011,08,06,06,15,15.90
2011,08,06,06,16,15.90
2011,08,06,06,17,15.90
2011,08,06,06,18,15.90
2011,08,06,06,19,15.90
2011,08,06,06,20,15.90
2011,08,06,06,21,15.90
2011,08,06,06,22,15.90
2011,08,06,06,23,15.90
2011,08,06,06,24,15.90
2011,08,06,06,25,15.90
2011,08,06,06,26,15.90
2011,08,06,06,27,15.90
2011,08,06,06,28,15.90
2011,08,06,06,29,15.90
2011,08,06,06,30,15.90
2011,08,06,06,31,15.90
2011,08,06,06,32,15.90
2011,08,06,06,33,15.90
2011,08,06,06,34,15.90
2011,08,06,06,35,15.90
2011,08,06,06,36,15.90
2011,08,06,06,37,15.90
2011,08,06,06,38,15.90
2011,08,06,06,39,15.90
2011,08,06,06,40,15.90
2011,08,06,06,41,15.90
2011,08,06,06,42,15.90
2011,08,06,06,43,15.90
2011,08,06,06,44,15.90
2011,08,06,06,45,15.90
2011,08,06,06,46,15.90
2011,08,06,06,47,15.90
2011,08,06,06,48,15.90
2011,08,06,06,49,15.90
2011,08,06,06,50,15.90
2011,08,06,06,51,15.90
2011,08,06,06,52,15.90
2011,08,06,06,53,15.90
2011,08,06,06,54,15.90
2011,08,06,06,55,15.90
2011,08,06,06,56,15.90
2011,08,06,06,57,15.90
2011,08,06,06,58,15.90
2011,08,06,06,59,15.90
2011,08,06,07,00,15.90
2011,08,06,07,01,15.90
2011,08,06,07,02,15.90
2011,08,06,07,03,15.90
2011,08,06,07,04,15.90
2011,08,06,07,05,15.90
2011,08,06,07,06,15.90
2011,08,06,07,07,15.90
2011,08,06,07,08,15.90
2011,08,06,07,09,15.90
2011,08,06,07,10,15.90
2011,08,06,07,11,15.90
2011,08,06,07,12,15.90
2011,08,06,07,13,15.90
2011,08,06,07,14,15.90
2011,08,06,07,15,16.00
2011,08,06,07,16,16.00
2011,08,06,07,17,16.00
2011,08,06,07,18,16.00
2011,08,06,07,19,16.00
2011,08,06,07,20,16.00
2011,08,06,07,21,16.00
2011,08,06,07,22,16.10
2011,08,06,07,23,16.10
2011,08,06,07,24,16.10
2011,08,06,07,25,16.10
2011,08,06,07,26,16.10
2011,08,06,07,27,16.20
2011,08,06,07,28,16.20
2011,08,06,07,29,16.20
2011,08,06,07,30,16.30
2011,08,06,07,31,16.30
2011,08,06,07,32,16.30
2011,08,06,07,33,16.30
2011,08,06,07,34,16.30
2011,08,06,07,35,16.30
2011,08,06,07,36,16.30
2011,08,06,07,37,16.30
2011,08,06,07,38,16.30
2011,08,06,07,39,16.30
2011,08,06,07,40,16.30
2011,08,06,07,41,16.30
2011,08,06,07,42,16.30
2011,08,06,07,43,16.30
2011,08,06,07,44,16.30
2011,08,06,07,45,16.30
2011,08,06,07,46,16.30
2011,08,06,07,47,16.30
2011,08,06,07,48,16.30
2011,08,06,07,49,16.30
2011,08,06,07,50,16.30
2011,08,06,07,51,16.30
2011,08,06,07,52,16.30
2011,08,06,07,53,16.30
2011,08,06,07,54,16.30
2011,08,06,07,55,16.30
2011,08,06,07,56,16.30
2011,08,06,07,57,16.30
2011,08,06,07,58,16.30
2011,08,06,07,59,16.30
2011,08,06,08,00,16.30
2011,08,06,08,01,16.30
2011,08,06,08,02,16.30
2011,08,06,08,03,16.30
2011,08,06,08,04,16.30
2011,08,06,08,05,16.30
2011,08,06,08,06,16.20
2011,08,06,08,07,16.20
2011,08,06,08,08,16.20
2011,08,06,08,09,16.20
2011,08,06,08,10,16.20
2011,08,06,08,11,16.20
2011,08,06,08,12,16.20
2011,08,06,08,13,16.20
2011,08,06,08,14,16.20
2011,08,06,08,15,16.20
2011,08,06,08,16,16.20
2011,08,06,08,17,16.20
2011,08,06,08,18,16.20
2011,08,06,08,19,16.20
2011,08,06,08,20,16.20
2011,08,06,08,21,16.20
2011,08,06,08,22,16.20
2011,08,06,08,23,16.20
2011,08,06,08,24,16.20
2011,08,06,08,25,16.20
2011,08,06,08,26,16.20
2011,08,06,08,27,16.20
2011,08,06,08,28,16.20
2011,08,06,08,29,16.20
2011,08,06,08,30,16.20
2011,08,06,08,31,16.20
2011,08,06,08,32,16.20
2011,08,06,08,33,16.20
2011,08,06,08,34,16.20
2011,08,06,08,35,16.20
2011,08,06,08,36,16.20
2011,08,06,08,37,16.30
2011,08,06,08,38,16.30
2011,08,06,08,39,16.30
2011,08,06,08,40,16.30
2011,08,06,08,41,16.40
2011,08,06,08,42,16.50
2011,08,06,08,43,16.50
2011,08,06,08,44,16.60
2011,08,06,08,45,16.70
2011,08,06,08,46,16.70
2011,08,06,08,47,16.80
2011,08,06,08,48,16.90
2011,08,06,08,49,16.90
2011,08,06,08,50,17.00
2011,08,06,08,51,17.10
2011,08,06,08,52,17.10
2011,08,06,08,53,17.20
2011,08,06,08,54,17.20
2011,08,06,08,55,17.30
2011,08,06,08,56,17.30
2011,08,06,08,57,17.40
2011,08,06,08,58,17.40
2011,08,06,08,59,17.50
2011,08,06,09,00,17.60
2011,08,06,09,01,17.60
2011,08,06,09,02,17.70
2011,08,06,09,03,17.70
2011,08,06,09,04,17.80
2011,08,06,09,05,17.80
2011,08,06,09,06,17.80
2011,08,06,09,07,17.90
2011,08,06,09,08,17.90
2011,08,06,09,09,17.90
2011,08,06,09,10,17.90
2011,08,06,09,11,18.00
2011,08,06,09,12,18.00
2011,08,06,09,13,18.10
2011,08,06,09,14,18.10
2011,08,06,09,15,18.10
2011,08,06,09,16,18.10
2011,08,06,09,17,18.10
2011,08,06,09,18,18.10
2011,08,06,09,19,18.10
2011,08,06,09,20,18.20
2011,08,06,09,21,18.20
2011,08,06,09,22,18.20
2011,08,06,09,23,18.30
2011,08,06,09,24,18.40
2011,08,06,09,25,18.40
2011,08,06,09,26,18.40
2011,08,06,09,27,18.50
2011,08,06,09,28,18.40
2011,08,06,09,29,18.40
2011,08,06,09,30,18.30
2011,08,06,09,31,18.30
2011,08,06,09,32,18.20
2011,08,06,09,33,18.20
2011,08,06,09,34,18.10
2011,08,06,09,35,18.10
2011,08,06,09,36,18.10
2011,08,06,09,37,18.10
2011,08,06,09,38,18.10
2011,08,06,09,39,18.10
2011,08,06,09,40,18.10
2011,08,06,09,41,18.20
2011,08,06,09,42,18.10
2011,08,06,09,43,18.10
2011,08,06,09,44,18.10
2011,08,06,09,45,18.10
2011,08,06,09,46,18.10
2011,08,06,09,47,18.10
2011,08,06,09,48,18.10
2011,08,06,09,49,18.10
2011,08,06,09,50,18.10
2011,08,06,09,51,18.10
2011,08,06,09,52,18.10
2011,08,06,09,53,18.10
2011,08,06,09,54,18.10
2011,08,06,09,55,18.10
2011,08,06,09,56,18.00
2011,08,06,09,57,18.00
2011,08,06,09,58,18.00
2011,08,06,09,59,17.90
2011,08,06,10,00,17.90
2011,08,06,10,01,17.90
2011,08,06,10,02,17.90
2011,08,06,10,03,17.90
2011,08,06,10,04,17.90
2011,08,06,10,05,17.90
2011,08,06,10,06,17.90
2011,08,06,10,07,17.90
2011,08,06,10,08,17.90
2011,08,06,10,09,17.90
2011,08,06,10,10,17.90
2011,08,06,10,11,18.00
2011,08,06,10,12,18.00
2011,08,06,10,13,18.10
2011,08,06,10,14,18.20
2011,08,06,10,15,18.20
2011,08,06,10,16,18.20
2011,08,06,10,17,18.30
2011,08,06,10,18,18.30
2011,08,06,10,19,18.40
2011,08,06,10,20,18.40
2011,08,06,10,21,18.40
2011,08,06,10,22,18.40
2011,08,06,10,23,18.40
2011,08,06,10,24,18.30
2011,08,06,10,25,18.30
2011,08,06,10,26,18.30
2011,08,06,10,27,18.20
2011,08,06,10,28,18.20
2011,08,06,10,29,18.30
2011,08,06,10,30,18.30
2011,08,06,10,31,18.30
2011,08,06,10,32,18.40
2011,08,06,10,33,18.50
2011,08,06,10,34,18.50
2011,08,06,10,35,18.50
2011,08,06,10,36,18.50
2011,08,06,10,37,18.40
2011,08,06,10,38,18.40
2011,08,06,10,39,18.40
2011,08,06,10,40,18.40
2011,08,06,10,41,18.40
2011,08,06,10,42,18.40
2011,08,06,10,43,18.30
2011,08,06,10,44,18.30
2011,08,06,10,45,18.30
2011,08,06,10,46,18.20
2011,08,06,10,47,18.20
2011,08,06,10,48,18.10
2011,08,06,10,49,18.10
2011,08,06,10,50,18.10
2011,08,06,10,51,18.10
2011,08,06,10,52,18.10
2011,08,06,10,53,18.10
2011,08,06,10,54,18.10
2011,08,06,10,55,18.00
2011,08,06,10,56,18.00
2011,08,06,10,57,18.10
2011,08,06,10,58,18.00
2011,08,06,10,59,18.00
2011,08,06,11,00,18.00
2011,08,06,11,01,18.10
2011,08,06,11,02,18.10
2011,08,06,11,03,18.10
2011,08,06,11,04,18.10
2011,08,06,11,05,18.20
2011,08,06,11,06,18.20
2011,08,06,11,07,18.30
2011,08,06,11,08,18.30
2011,08,06,11,09,18.40
2011,08,06,11,10,18.40
2011,08,06,11,11,18.50
2011,08,06,11,12,18.60
2011,08,06,11,13,18.60
2011,08,06,11,14,18.60
2011,08,06,11,15,18.60
2011,08,06,11,16,18.60
2011,08,06,11,17,18.60
2011,08,06,11,18,18.60
2011,08,06,11,19,18.50
2011,08,06,11,20,18.50
2011,08,06,11,21,18.40
2011,08,06,11,22,18.40
2011,08,06,11,23,18.40
2011,08,06,11,24,18.50
2011,08,06,11,25,18.50
2011,08,06,11,26,18.60
2011,08,06,11,27,18.60
2011,08,06,11,28,18.60
2011,08,06,11,29,18.60
2011,08,06,11,30,18.60
2011,08,06,11,31,18.70
2011,08,06,11,32,18.70
2011,08,06,11,33,18.70
2011,08,06,11,34,18.70
2011,08,06,11,35,18.80
2011,08,06,11,36,18.80
2011,08,06,11,37,18.90
2011,08,06,11,38,18.90
2011,08,06,11,39,18.90
2011,08,06,11,40,18.90
2011,08,06,11,41,18.90
2011,08,06,11,42,18.90
2011,08,06,11,43,18.90
2011,08,06,11,44,19.00
2011,08,06,11,45,19.00
2011,08,06,11,46,19.10
2011,08,06,11,47,19.10
2011,08,06,11,48,19.10
2011,08,06,11,49,19.20
2011,08,06,11,50,19.20
2011,08,06,11,51,19.20
2011,08,06,11,52,19.20
2011,08,06,11,53,19.30
2011,08,06,11,54,19.30
2011,08,06,11,55,19.40
2011,08,06,11,56,19.40
2011,08,06,11,57,19.40
2011,08,06,11,58,19.40
2011,08,06,11,59,19.40
2011,08,06,12,00,19.40
2011,08,06,12,01,19.40
2011,08,06,12,02,19.40
2011,08,06,12,03,19.40
2011,08,06,12,04,19.40
2011,08,06,12,05,19.40
2011,08,06,12,06,19.40
2011,08,06,12,07,19.40
2011,08,06,12,08,19.40
2011,08,06,12,09,19.40
2011,08,06,12,10,19.40
2011,08,06,12,11,19.50
2011,08,06,12,12,19.50
2011,08,06,12,13,19.60
2011,08,06,12,14,19.60
2011,08,06,12,15,19.60
2011,08,06,12,16,19.60
2011,08,06,12,17,19.60
2011,08,06,12,18,19.60
2011,08,06,12,19,19.60
2011,08,06,12,20,19.70
2011,08,06,12,21,19.60
2011,08,06,12,22,19.60
2011,08,06,12,23,19.60
2011,08,06,12,24,19.60
2011,08,06,12,25,19.60
2011,08,06,12,26,19.60
2011,08,06,12,27,19.60
2011,08,06,12,28,19.60
2011,08,06,12,29,19.60
2011,08,06,12,30,19.60
2011,08,06,12,31,19.60
2011,08,06,12,32,19.60
2011,08,06,12,33,19.60
2011,08,06,12,34,19.60
2011,08,06,12,35,19.60
2011,08,06,12,36,19.60
2011,08,06,12,37,19.60
2011,08,06,12,38,19.60
2011,08,06,12,39,19.70
2011,08,06,12,40,19.70
2011,08,06,12,41,19.80
2011,08,06,12,42,19.80
2011,08,06,12,43,19.80
2011,08,06,12,44,19.80
2011,08,06,12,45,19.80
2011,08,06,12,46,19.80
2011,08,06,12,47,19.80
2011,08,06,12,48,19.80
2011,08,06,12,49,19.80
2011,08,06,12,50,19.80
2011,08,06,12,51,19.80
2011,08,06,12,52,19.80
2011,08,06,12,53,19.80
2011,08,06,12,54,19.80
2011,08,06,12,55,19.90
2011,08,06,12,56,19.90
2011,08,06,12,57,19.90
2011,08,06,12,58,20.00
2011,08,06,12,59,20.10
2011,08,06,13,00,20.10
2011,08,06,13,01,20.10
2011,08,06,13,02,20.20
2011,08,06,13,03,20.30
2011,08,06,13,04,20.30
2011,08,06,13,05,20.30
2011,08,06,13,06,20.30
2011,08,06,13,07,20.30
2011,08,06,13,08,20.30
2011,08,06,13,09,20.20
2011,08,06,13,10,20.20
2011,08,06,13,11,20.30
2011,08,06,13,12,20.30
2011,08,06,13,13,20.30
2011,08,06,13,14,20.30
2011,08,06,13,15,20.30
2011,08,06,13,16,20.30
2011,08,06,13,17,20.30
2011,08,06,13,18,20.30
2011,08,06,13,19,20.30
2011,08,06,13,20,20.40
2011,08,06,13,21,20.30
2011,08,06,13,22,20.30
2011,08,06,13,23,20.40
2011,08,06,13,24,20.40
2011,08,06,13,25,20.40
2011,08,06,13,26,20.40
2011,08,06,13,27,20.50
2011,08,06,13,28,20.50
2011,08,06,13,29,20.50
2011,08,06,13,30,20.60
2011,08,06,13,31,20.60
2011,08,06,13,32,20.60
2011,08,06,13,33,20.50
2011,08,06,13,34,20.50
2011,08,06,13,35,20.60
2011,08,06,13,36,20.50
2011,08,06,13,37,20.50
2011,08,06,13,38,20.50
2011,08,06,13,39,20.40
2011,08,06,13,40,20.40
2011,08,06,13,41,20.40
2011,08,06,13,42,20.40
2011,08,06,13,43,20.40
2011,08,06,13,44,20.40
2011,08,06,13,45,20.50
2011,08,06,13,46,20.50
2011,08,06,13,47,20.60
2011,08,06,13,48,20.60
2011,08,06,13,49,20.60
2011,08,06,13,50,20.70
2011,08,06,13,51,20.80
2011,08,06,13,52,20.80
2011,08,06,13,53,20.80
2011,08,06,13,54,20.80
2011,08,06,13,55,20.80
2011,08,06,13,56,20.80
2011,08,06,13,57,20.80
2011,08,06,13,58,20.80
2011,08,06,13,59,20.80
2011,08,06,14,00,20.90
2011,08,06,14,01,21.00
2011,08,06,14,02,21.10
2011,08,06,14,03,21.10
2011,08,06,14,04,21.20
2011,08,06,14,05,21.30
2011,08,06,14,06,21.30
2011,08,06,14,07,21.40
2011,08,06,14,08,21.40
2011,08,06,14,09,21.40
2011,08,06,14,10,21.40
2011,08,06,14,11,21.40
2011,08,06,14,12,21.40
2011,08,06,14,13,21.30
2011,08,06,14,14,21.20
2011,08,06,14,15,21.20
2011,08,06,14,16,21.20
2011,08,06,14,17,21.20
2011,08,06,14,18,21.30
2011,08,06,14,19,21.30
2011,08,06,14,20,21.30
2011,08,06,14,21,21.40
2011,08,06,14,22,21.40
2011,08,06,14,23,21.40
2011,08,06,14,24,21.40
2011,08,06,14,25,21.40
2011,08,06,14,26,21.40
2011,08,06,14,27,21.50
2011,08,06,14,28,21.60
2011,08,06,14,29,21.70
2011,08,06,14,30,21.70
2011,08,06,14,31,21.70
2011,08,06,14,32,21.80
2011,08,06,14,33,21.70
2011,08,06,14,34,21.70
2011,08,06,14,35,21.70
2011,08,06,14,36,21.70
2011,08,06,14,37,21.80
2011,08,06,14,38,21.80
2011,08,06,14,39,21.80
2011,08,06,14,40,21.90
2011,08,06,14,41,22.00
2011,08,06,14,42,22.10
2011,08,06,14,43,22.20
2011,08,06,14,44,22.20
2011,08,06,14,45,22.30
2011,08,06,14,46,22.40
2011,08,06,14,47,22.40
2011,08,06,14,48,22.40
2011,08,06,14,49,22.50
2011,08,06,14,50,22.40
2011,08,06,14,51,22.40
2011,08,06,14,52,22.40
2011,08,06,14,53,22.40
2011,08,06,14,54,22.30
2011,08,06,14,55,22.20
2011,08,06,14,56,22.10
2011,08,06,14,57,22.10
2011,08,06,14,58,22.10
2011,08,06,14,59,22.10
2011,08,06,15,00,22.20
2011,08,06,15,01,22.20
2011,08,06,15,02,22.20
2011,08,06,15,03,22.20
2011,08,06,15,04,22.10
2011,08,06,15,05,22.10
2011,08,06,15,06,22.00
2011,08,06,15,07,21.90
2011,08,06,15,08,21.90
2011,08,06,15,09,21.90
2011,08,06,15,10,21.80
2011,08,06,15,11,21.80
2011,08,06,15,12,21.80
2011,08,06,15,13,21.80
2011,08,06,15,14,21.70
2011,08,06,15,15,21.70
2011,08,06,15,16,21.70
2011,08,06,15,17,21.70
2011,08,06,15,18,21.70
2011,08,06,15,19,21.80
2011,08,06,15,20,21.80
2011,08,06,15,21,21.80
2011,08,06,15,22,21.90
2011,08,06,15,23,21.90
2011,08,06,15,24,21.90
2011,08,06,15,25,21.90
2011,08,06,15,26,22.00
2011,08,06,15,27,22.00
2011,08,06,15,28,22.10
2011,08,06,15,29,22.10
2011,08,06,15,30,22.20
2011,08,06,15,31,22.20
2011,08,06,15,32,22.20
2011,08,06,15,33,22.20
2011,08,06,15,34,22.20
2011,08,06,15,35,22.20
2011,08,06,15,36,22.30
2011,08,06,15,37,22.30
2011,08,06,15,38,22.40
2011,08,06,15,39,22.40
2011,08,06,15,40,22.40
2011,08,06,15,41,22.40
2011,08,06,15,42,22.50
2011,08,06,15,43,22.50
2011,08,06,15,44,22.50
2011,08,06,15,45,22.50
2011,08,06,15,46,22.50
2011,08,06,15,47,22.60
2011,08,06,15,48,22.60
2011,08,06,15,49,22.60
2011,08,06,15,50,22.60
2011,08,06,15,51,22.50
2011,08,06,15,52,22.40
2011,08,06,15,53,22.40
2011,08,06,15,54,22.40
2011,08,06,15,55,22.40
2011,08,06,15,56,22.30
2011,08,06,15,57,22.30
2011,08,06,15,58,22.30
2011,08,06,15,59,22.20
2011,08,06,16,00,22.20
2011,08,06,16,01,22.30
2011,08,06,16,02,22.30
2011,08,06,16,03,22.30
2011,08,06,16,04,22.30
2011,08,06,16,05,22.30
2011,08,06,16,06,22.30
2011,08,06,16,07,22.30
2011,08,06,16,08,22.30
2011,08,06,16,09,22.40
2011,08,06,16,10,22.40
2011,08,06,16,11,22.40
2011,08,06,16,12,22.40
2011,08,06,16,13,22.40
2011,08,06,16,14,22.40
2011,08,06,16,15,22.40
2011,08,06,16,16,22.30
2011,08,06,16,17,22.30
2011,08,06,16,18,22.30
2011,08,06,16,19,22.30
2011,08,06,16,20,22.30
2011,08,06,16,21,22.30
2011,08,06,16,22,22.30
2011,08,06,16,23,22.30
2011,08,06,16,24,22.30
2011,08,06,16,25,22.30
2011,08,06,16,26,22.30
2011,08,06,16,27,22.30
2011,08,06,16,28,22.30
2011,08,06,16,29,22.20
2011,08,06,16,30,22.10
2011,08,06,16,31,22.10
2011,08,06,16,32,22.10
2011,08,06,16,33,22.10
2011,08,06,16,34,22.10
2011,08,06,16,35,22.10
2011,08,06,16,36,22.10
2011,08,06,16,37,22.00
2011,08,06,16,38,22.00
2011,08,06,16,39,22.00
2011,08,06,16,40,22.00
2011,08,06,16,41,22.10
2011,08,06,16,42,22.10
2011,08,06,16,43,22.20
2011,08,06,16,44,22.20
2011,08,06,16,45,22.30
2011,08,06,16,46,22.30
2011,08,06,16,47,22.30
2011,08,06,16,48,22.30
2011,08,06,16,49,22.40
2011,08,06,16,50,22.40
2011,08,06,16,51,22.40
2011,08,06,16,52,22.40
2011,08,06,16,53,22.40
2011,08,06,16,54,22.50
2011,08,06,16,55,22.50
2011,08,06,16,56,22.50
2011,08,06,16,57,22.40
2011,08,06,16,58,22.40
2011,08,06,16,59,22.40
2011,08,06,17,00,22.40
2011,08,06,17,01,22.40
2011,08,06,17,02,22.40
2011,08,06,17,03,22.40
2011,08,06,17,04,22.40
2011,08,06,17,05,22.40
2011,08,06,17,06,22.40
2011,08,06,17,07,22.40
2011,08,06,17,08,22.50
2011,08,06,17,09,22.50
2011,08,06,17,10,22.40
2011,08,06,17,11,22.40
2011,08,06,17,12,22.40
2011,08,06,17,13,22.40
2011,08,06,17,14,22.30
2011,08,06,17,15,22.30
2011,08,06,17,16,22.30
2011,08,06,17,17,22.30
2011,08,06,17,18,22.30
2011,08,06,17,19,22.30